Regional Weather Roundup
Issued by NWS

Home | Current Version | Previous Version | Text Only | Print | Product List | Glossary Off
Versions: 1 2 3 4 5 6 7 8 9 10 11 12 13 14 15 16 17 18 19 20 21 22 23 24 25 26 27 28 29 30 31 32 33 34 35 36 37 38 39 40 41 42 43 44 45 46 47 48 49 50

322
ASUS43 KOAX 091302
RWRNE

WEATHER ROUNDUP FOR NEBRASKA
NATIONAL WEATHER SERVICE OMAHA NE
700 AM CST TUE FEB 09 2016

NOTES: SATELLITE DATA IS BEING USED TO AUGMENT CLOUD COVER ABOVE
       12000 FEET.
       "FAIR" INDICATES FEW OR NO CLOUDS BELOW 12,000 FEET WITH NO
       SIGNIFICANT WEATHER AND/OR OBSTRUCTIONS TO VISIBILITY.

  * THESE STATIONS DO NOT REPORT WEATHER SUCH AS RAIN...SNOW OR FOG.

NEZ001>004-019>022-054>056-091400-
NEBRASKA PANHANDLE

CITY           SKY/WX    TMP DP  RH WIND       PRES   REMARKS
SCOTTSBLUFF    CLEAR     30  23  75 NW8       30.27R WCI  22
ALLIANCE       CLEAR     26  21  81 W9        30.21S WCI  17
CHADRON        MOCLDY    27  23  85 CALM      30.24S
SIDNEY         CLEAR     31  24  75 NW14      30.24R WCI  21
$$

NEZ057>060-069>072-079>082-091400-
SOUTHWEST NEBRASKA

CITY           SKY/WX    TMP DP  RH WIND       PRES   REMARKS
NORTH PLATTE   CLOUDY    24  18  77 NW9       30.23R WCI  14
IMPERIAL       CLEAR     31  24  75 NW12      30.23R WCI  22
MCCOOK         CLOUDY    29  18  63 N12       30.25R WCI  19
$$

NEZ005>010-023>029-035>040-094-091400-
NORTH CENTRAL NEBRASKA

CITY           SKY/WX    TMP DP  RH WIND       PRES   REMARKS
VALENTINE      CLOUDY    26  18  71 N7        30.24R WCI  18
BROKEN BOW     CLOUDY    26  19  74 N9        30.21R WCI  17
ORD            CLOUDY    23  16  74 N13       30.22R WCI  11
$$

NEZ041-046>049-061>064-073>077-083>087-091400-
SOUTH CENTRAL NEBRASKA

CITY           SKY/WX    TMP DP  RH WIND       PRES   REMARKS
GRAND ISLAND   CLOUDY    20  12  71 NW10      30.23S WCI   9
HASTINGS       CLOUDY    22  14  71 N14       30.22R WCI   9
$$

NEZ011>018-030>034-042>045-091400-
NORTHEAST NEBRASKA

CITY           SKY/WX    TMP DP  RH WIND       PRES   REMARKS
NORFOLK        CLEAR     15   7  70 NW16      30.21R WCI  -1
COLUMBUS *     CLEAR     16   0  48 NW20      30.21R WCI  -1
TEKAMAH        CLEAR     15   4  61 NW16      30.21R WCI  -1
$$

NEZ050>053-065>068-078-088>093-091400-
SOUTHEAST NEBRASKA

CITY           SKY/WX    TMP DP  RH WIND       PRES   REMARKS
LINCOLN        CLEAR     18   7  62 N18       30.22R WCI   2
OMAHA EPPLEY   PTCLDY    13   6  74 N13       30.19R WCI  -2
FALLS CITY     CLEAR     17   9  70 N6        30.17R WCI   9
$$

NEZ044-045-051>053-067-091400-
OMAHA AREA

CITY           SKY/WX    TMP DP  RH WIND       PRES   REMARKS
OMAHA EPPLEY   PTCLDY    13   6  74 N13       30.19R WCI  -2
OFFUTT AFB     PTCLDY    14   7  73 NW15G29   30.18R WCI  -1
$$




USA.gov is the U.S. government's official web portal to all federal, state and local government web resources and services.